| time (UTC) | temp F | wind direction | speed MPH | gust MPH | rain 1hr in | rain 24hr in | rain mn in | humidity % | barometer mb |
| 20260509002539 | 58 | 94 | 2.0 | 5.0 | 0.00 | 0.00 | 0.00 | 72 | 1030.9 |
| 20260509002036 | 58 | 95 | 0.0 | 5.0 | 0.00 | 0.00 | 0.00 | 74 | 1030.9 |
| 20260509001546 | 57 | 125 | 3.0 | 5.0 | 0.00 | 0.00 | 0.00 | 73 | 1031.0 |
| 20260509001037 | 57 | 85 | 2.0 | 5.0 | 0.00 | 0.00 | 0.00 | 75 | 1030.9 |
| 20260509000539 | 57 | 113 | 2.0 | 5.0 | 0.00 | 0.00 | 0.00 | 75 | 1030.8 |
| 20260509000052 | 57 | 127 | 2.0 | 5.0 | 0.00 | 0.00 | 0.00 | 75 | 1030.8 |
| 20260508235537 | 56 | 0 | 1.0 | 4.0 | 0.00 | 0.00 | 0.00 | 76 | 1030.8 |
| 20260508235039 | 56 | 94 | 1.0 | 4.0 | 0.00 | 0.00 | 0.00 | 77 | 1030.8 |
| 20260508234550 | 55 | 108 | 2.0 | 5.0 | 0.00 | 0.00 | 0.00 | 77 | 1030.9 |
| 20260508234036 | 55 | 124 | 2.0 | 6.0 | 0.00 | 0.00 | 0.00 | 78 | 1030.9 |
| 20260508233539 | 55 | 126 | 3.0 | 11.0 | 0.00 | 0.00 | 0.00 | 78 | 1031.0 |
| 20260508233053 | 55 | 126 | 3.0 | 11.0 | 0.00 | 0.00 | 0.00 | 79 | 1030.9 |
| 20260508232536 | 55 | 129 | 5.0 | 11.0 | 0.00 | 0.00 | 0.00 | 79 | 1030.9 |
| 20260508232037 | 55 | 153 | 4.0 | 6.0 | 0.00 | 0.00 | 0.00 | 79 | 1031.0 |
| 20260508231551 | 55 | 140 | 1.0 | 5.0 | 0.00 | 0.00 | 0.00 | 78 | 1030.8 |
| 20260508231041 | 55 | 112 | 3.0 | 5.0 | 0.00 | 0.00 | 0.00 | 78 | 1030.7 |
| 20260508230536 | 55 | 119 | 1.0 | 9.0 | 0.00 | 0.00 | 0.00 | 79 | 1030.7 |
| 20260508230052 | 55 | 124 | 3.0 | 9.0 | 0.00 | 0.00 | 0.00 | 79 | 1030.7 |
| 20260508225536 | 54 | 126 | 3.0 | 6.0 | 0.00 | 0.00 | 0.00 | 78 | 1030.6 |
| 20260508225042 | 54 | 120 | 2.0 | 6.0 | 0.00 | 0.00 | 0.00 | 78 | 1030.6 |
| 20260508224553 | 54 | 130 | 3.0 | 11.0 | 0.00 | 0.00 | 0.00 | 78 | 1030.5 |
| 20260508224037 | 54 | 126 | 4.0 | 11.0 | 0.00 | 0.00 | 0.00 | 79 | 1030.4 |
| 20260508223537 | 54 | 129 | 5.0 | 11.0 | 0.00 | 0.00 | 0.00 | 78 | 1030.4 |
| 20260508223048 | 54 | 114 | 4.0 | 7.0 | 0.00 | 0.00 | 0.00 | 79 | 1030.3 |
| 20260508222537 | 54 | 124 | 3.0 | 6.0 | 0.00 | 0.00 | 0.00 | 79 | 1030.4 |
| 20260508222037 | 54 | 117 | 3.0 | 9.0 | 0.00 | 0.00 | 0.00 | 79 | 1030.4 |
| 20260508221556 | 54 | 126 | 4.0 | 9.0 | 0.00 | 0.00 | 0.00 | 79 | 1030.3 |
| 20260508221039 | 54 | 133 | 4.0 | 7.0 | 0.00 | 0.00 | 0.00 | 79 | 1030.3 |
| 20260508220539 | 54 | 127 | 3.0 | 6.0 | 0.00 | 0.00 | 0.00 | 79 | 1030.4 |
| 20260508220053 | 54 | 144 | 2.0 | 5.0 | 0.00 | 0.00 | 0.00 | 80 | 1030.2 |
| 20260508215536 | 53 | 125 | 2.0 | 5.0 | 0.00 | 0.00 | 0.00 | 80 | 1030.2 |
| 20260508215037 | 53 | 126 | 3.0 | 5.0 | 0.00 | 0.00 | 0.00 | 80 | 1030.2 |
| 20260508214549 | 53 | 127 | 2.0 | 4.0 | 0.00 | 0.00 | 0.00 | 80 | 1030.1 |
| 20260508214040 | 53 | 135 | 2.0 | 3.0 | 0.00 | 0.00 | 0.00 | 80 | 1030.1 |
| 20260508213536 | 53 | 117 | 2.0 | 4.0 | 0.00 | 0.00 | 0.00 | 80 | 1030.1 |
| 20260508213048 | 53 | 116 | 1.0 | 7.0 | 0.00 | 0.00 | 0.00 | 80 | 1030.0 |
| 20260508212540 | 53 | 139 | 4.0 | 8.0 | 0.00 | 0.00 | 0.00 | 80 | 1030.0 |
| 20260508212043 | 53 | 143 | 4.0 | 8.0 | 0.00 | 0.00 | 0.00 | 80 | 1029.8 |
| 20260508211553 | 53 | 140 | 4.0 | 8.0 | 0.00 | 0.00 | 0.00 | 80 | 1029.7 |
| 20260508211038 | 53 | 129 | 3.0 | 7.0 | 0.00 | 0.00 | 0.00 | 80 | 1029.7 |
| 20260508210539 | 53 | 124 | 3.0 | 5.0 | 0.00 | 0.00 | 0.00 | 80 | 1029.6 |
| 20260508210052 | 53 | 124 | 3.0 | 9.0 | 0.00 | 0.00 | 0.00 | 80 | 1029.4 |
| 20260508205538 | 53 | 128 | 5.0 | 9.0 | 0.00 | 0.00 | 0.00 | 80 | 1029.3 |
| 20260508205038 | 53 | 143 | 4.0 | 6.0 | 0.00 | 0.00 | 0.00 | 80 | 1029.3 |
| 20260508204553 | 53 | 124 | 3.0 | 6.0 | 0.00 | 0.00 | 0.00 | 80 | 1029.3 |
| 20260508204040 | 53 | 129 | 3.0 | 5.0 | 0.00 | 0.00 | 0.00 | 80 | 1029.3 |
| 20260508203536 | 53 | 128 | 3.0 | 5.0 | 0.00 | 0.00 | 0.00 | 81 | 1029.3 |
| 20260508203048 | 53 | 129 | 3.0 | 5.0 | 0.00 | 0.00 | 0.00 | 81 | 1029.3 |
| 20260508202543 | 53 | 128 | 2.0 | 5.0 | 0.00 | 0.00 | 0.00 | 81 | 1029.3 |
| 20260508202036 | 53 | 107 | 2.0 | 5.0 | 0.00 | 0.00 | 0.00 | 82 | 1029.3 |
| 20260508201546 | 53 | 125 | 3.0 | 5.0 | 0.00 | 0.00 | 0.00 | 82 | 1029.3 |
| 20260508201036 | 53 | 117 | 2.0 | 5.0 | 0.00 | 0.00 | 0.00 | 83 | 1029.3 |
| 20260508200536 | 53 | 113 | 2.0 | 5.0 | 0.00 | 0.00 | 0.00 | 83 | 1029.2 |
| 20260508200047 | 52 | 132 | 1.0 | 3.0 | 0.00 | 0.00 | 0.00 | 84 | 1029.1 |
| 20260508195539 | 52 | 130 | 1.0 | 3.0 | 0.00 | 0.00 | 0.00 | 83 | 1029.1 |
| 20260508195038 | 52 | 143 | 1.0 | 5.0 | 0.00 | 0.00 | 0.00 | 83 | 1029.2 |
| 20260508194603 | 53 | 134 | 2.0 | 5.0 | 0.00 | 0.00 | 0.00 | 83 | 1029.1 |
| 20260508194037 | 53 | 140 | 3.0 | 4.0 | 0.00 | 0.00 | 0.00 | 83 | 1028.9 |
| 20260508193537 | 52 | 126 | 1.0 | 3.0 | 0.00 | 0.00 | 0.00 | 84 | 1029.0 |
| 20260508193114 | 52 | 126 | 2.0 | 3.0 | 0.00 | 0.00 | 0.00 | 84 | 1029.0 |
| 20260508192537 | 52 | 126 | 2.0 | 3.0 | 0.00 | 0.00 | 0.00 | 85 | 1029.0 |
| 20260508192037 | 52 | 126 | 2.0 | 3.0 | 0.00 | 0.00 | 0.00 | 85 | 1029.0 |
| 20260508191557 | 51 | 119 | 1.0 | 2.0 | 0.00 | 0.00 | 0.00 | 86 | 1028.9 |
| 20260508191036 | 51 | 119 | 1.0 | 2.0 | 0.00 | 0.00 | 0.00 | 86 | 1028.9 |
| 20260508190540 | 51 | 119 | 1.0 | 2.0 | 0.00 | 0.00 | 0.00 | 87 | 1028.8 |
| 20260508190108 | 50 | 119 | 1.0 | 1.0 | 0.00 | 0.00 | 0.00 | 88 | 1028.8 |
| 20260508185540 | 50 | 0 | 0.0 | 1.0 | 0.00 | 0.00 | 0.00 | 88 | 1028.9 |
| 20260508185039 | 49 | 119 | 0.0 | 2.0 | 0.00 | 0.00 | 0.00 | 88 | 1028.9 |
| 20260508184549 | 49 | 0 | 1.0 | 2.0 | 0.00 | 0.00 | 0.00 | 88 | 1028.8 |
| 20260508184039 | 49 | 119 | 0.0 | 1.0 | 0.00 | 0.00 | 0.00 | 89 | 1028.9 |
| 20260508183537 | 48 | 119 | 0.0 | 1.0 | 0.00 | 0.00 | 0.00 | 89 | 1028.9 |
| 20260508183047 | 48 | 0 | 0.0 | 1.0 | 0.00 | 0.00 | 0.00 | 87 | 1028.9 |
| 20260508182541 | 48 | 0 | 0.0 | 2.0 | 0.00 | 0.00 | 0.00 | 87 | 1028.9 |
| 20260508182041 | 49 | 0 | 0.0 | 4.0 | 0.00 | 0.00 | 0.00 | 86 | 1028.9 |
| 20260508181601 | 49 | 119 | 0.0 | 4.0 | 0.00 | 0.00 | 0.00 | 86 | 1029.0 |
| 20260508181042 | 49 | 131 | 2.0 | 4.0 | 0.00 | 0.00 | 0.00 | 86 | 1028.9 |
| 20260508180546 | 50 | 129 | 2.0 | 3.0 | 0.00 | 0.00 | 0.00 | 85 | 1029.0 |
| 20260508180055 | 50 | 131 | 2.0 | 3.0 | 0.00 | 0.00 | 0.00 | 84 | 1028.9 |
| 20260508175543 | 50 | 131 | 2.0 | 3.0 | 0.00 | 0.00 | 0.00 | 83 | 1029.0 |
| 20260508175042 | 51 | 131 | 2.0 | 5.0 | 0.00 | 0.00 | 0.00 | 82 | 1029.0 |
| 20260508174549 | 51 | 131 | 2.0 | 5.0 | 0.00 | 0.00 | 0.00 | 82 | 1029.0 |
| 20260508174043 | 52 | 139 | 3.0 | 6.0 | 0.00 | 0.00 | 0.00 | 82 | 1029.1 |
| 20260508173542 | 52 | 138 | 3.0 | 6.0 | 0.00 | 0.00 | 0.00 | 81 | 1029.1 |
| 20260508173051 | 52 | 141 | 3.0 | 9.0 | 0.00 | 0.00 | 0.00 | 80 | 1029.1 |
| 20260508172544 | 53 | 134 | 5.0 | 9.0 | 0.00 | 0.00 | 0.00 | 80 | 1029.3 |
| 20260508172041 | 53 | 138 | 5.0 | 9.0 | 0.00 | 0.00 | 0.00 | 80 | 1029.2 |
| 20260508171551 | 54 | 143 | 4.0 | 7.0 | 0.00 | 0.00 | 0.00 | 83 | 1029.2 |
| 20260508171040 | 54 | 134 | 4.0 | 8.0 | 0.00 | 0.00 | 0.00 | 85 | 1029.4 |
| 20260508170541 | 54 | 134 | 5.0 | 8.0 | 0.00 | 0.00 | 0.00 | 85 | 1029.4 |
| 20260508170049 | 54 | 148 | 5.0 | 7.0 | 0.00 | 0.00 | 0.00 | 85 | 1029.4 |
| 20260508165541 | 54 | 145 | 4.0 | 7.0 | 0.00 | 0.00 | 0.00 | 85 | 1029.5 |
| 20260508165042 | 54 | 139 | 3.0 | 4.0 | 0.00 | 0.00 | 0.00 | 85 | 1029.5 |
| 20260508164550 | 54 | 146 | 2.0 | 4.0 | 0.00 | 0.00 | 0.00 | 85 | 1029.7 |
| 20260508164042 | 54 | 135 | 2.0 | 4.0 | 0.00 | 0.00 | 0.00 | 85 | 1029.7 |
| 20260508163542 | 54 | 135 | 2.0 | 8.0 | 0.00 | 0.00 | 0.00 | 85 | 1029.6 |
| 20260508163103 | 53 | 136 | 4.0 | 8.0 | 0.00 | 0.00 | 0.00 | 86 | 1029.6 |
| 20260508162542 | 53 | 139 | 5.0 | 8.0 | 0.00 | 0.00 | 0.00 | 86 | 1029.5 |
| 20260508162045 | 53 | 158 | 5.0 | 9.0 | 0.00 | 0.00 | 0.00 | 86 | 1029.6 |
| 20260508161555 | 54 | 151 | 5.0 | 9.0 | 0.00 | 0.00 | 0.00 | 86 | 1029.7 |
| 20260508161042 | 54 | 157 | 6.0 | 9.0 | 0.00 | 0.00 | 0.00 | 85 | 1029.6 |
| 20260508160541 | 54 | 143 | 5.0 | 9.0 | 0.00 | 0.00 | 0.00 | 85 | 1029.6 |
| 20260508160050 | 54 | 139 | 5.0 | 11.0 | 0.00 | 0.00 | 0.00 | 85 | 1029.6 |
| 20260508155541 | 54 | 146 | 6.0 | 11.0 | 0.00 | 0.00 | 0.00 | 83 | 1029.8 |
| 20260508155039 | 55 | 160 | 4.0 | 8.0 | 0.00 | 0.00 | 0.00 | 81 | 1029.6 |
| 20260508154554 | 55 | 143 | 5.0 | 9.0 | 0.00 | 0.00 | 0.00 | 82 | 1029.7 |
| 20260508154041 | 54 | 143 | 5.0 | 9.0 | 0.00 | 0.00 | 0.00 | 82 | 1029.8 |
| 20260508153542 | 54 | 152 | 5.0 | 8.0 | 0.00 | 0.00 | 0.00 | 82 | 1029.8 |
| 20260508153102 | 54 | 137 | 3.0 | 7.0 | 0.00 | 0.00 | 0.00 | 81 | 1029.8 |
| 20260508152541 | 54 | 143 | 3.0 | 7.0 | 0.00 | 0.00 | 0.00 | 81 | 1029.7 |
| 20260508152041 | 54 | 136 | 4.0 | 7.0 | 0.00 | 0.00 | 0.00 | 80 | 1029.8 |
| 20260508151556 | 54 | 148 | 4.0 | 7.0 | 0.00 | 0.00 | 0.00 | 80 | 1029.8 |
| 20260508151043 | 54 | 135 | 4.0 | 9.0 | 0.00 | 0.00 | 0.00 | 80 | 1029.6 |
| 20260508150541 | 54 | 146 | 5.0 | 9.0 | 0.00 | 0.00 | 0.00 | 79 | 1029.6 |
| 20260508150052 | 55 | 140 | 5.0 | 7.0 | 0.00 | 0.00 | 0.00 | 78 | 1029.8 |
| 20260508145541 | 55 | 140 | 5.0 | 7.0 | 0.00 | 0.00 | 0.00 | 78 | 1029.7 |
| 20260508145041 | 55 | 130 | 5.0 | 7.0 | 0.00 | 0.00 | 0.00 | 79 | 1029.8 |
| 20260508144550 | 56 | 145 | 4.0 | 6.0 | 0.00 | 0.00 | 0.00 | 81 | 1029.9 |
| 20260508144042 | 56 | 156 | 4.0 | 5.0 | 0.00 | 0.00 | 0.00 | 81 | 1029.9 |
| 20260508143543 | 56 | 139 | 3.0 | 5.0 | 0.00 | 0.00 | 0.00 | 80 | 1029.9 |
| 20260508143114 | 56 | 139 | 3.0 | 4.0 | 0.00 | 0.00 | 0.00 | 80 | 1030.0 |
| 20260508142542 | 56 | 137 | 3.0 | 6.0 | 0.00 | 0.00 | 0.00 | 80 | 1030.1 |
| 20260508142042 | 56 | 128 | 3.0 | 6.0 | 0.00 | 0.00 | 0.00 | 80 | 1030.2 |
| 20260508141559 | 56 | 136 | 3.0 | 6.0 | 0.00 | 0.00 | 0.00 | 80 | 1030.1 |
| 20260508141042 | 56 | 148 | 4.0 | 7.0 | 0.00 | 0.00 | 0.00 | 80 | 1030.2 |
| 20260508140541 | 56 | 137 | 5.0 | 7.0 | 0.00 | 0.00 | 0.00 | 80 | 1030.2 |
| 20260508135542 | 56 | 147 | 5.0 | 8.0 | 0.00 | 0.00 | 0.00 | 79 | 1030.4 |
| 20260508135042 | 56 | 140 | 4.0 | 9.0 | 0.00 | 0.00 | 0.00 | 79 | 1030.5 |
| 20260508134552 | 56 | 158 | 5.0 | 9.0 | 0.00 | 0.00 | 0.00 | 77 | 1030.4 |
| 20260508134042 | 56 | 133 | 3.0 | 9.0 | 0.00 | 0.00 | 0.00 | 79 | 1030.4 |
| 20260508133541 | 56 | 153 | 6.0 | 9.0 | 0.00 | 0.00 | 0.00 | 79 | 1030.4 |
| 20260508133102 | 57 | 139 | 5.0 | 8.0 | 0.00 | 0.00 | 0.00 | 78 | 1030.4 |
| 20260508132542 | 57 | 141 | 4.0 | 7.0 | 0.00 | 0.00 | 0.00 | 76 | 1030.5 |
| 20260508132042 | 57 | 135 | 4.0 | 6.0 | 0.00 | 0.00 | 0.00 | 75 | 1030.5 |
| 20260508131552 | 57 | 139 | 3.0 | 5.0 | 0.00 | 0.00 | 0.00 | 75 | 1030.4 |
| 20260508131043 | 57 | 154 | 4.0 | 6.0 | 0.00 | 0.00 | 0.00 | 75 | 1030.5 |
| 20260508130545 | 57 | 139 | 4.0 | 6.0 | 0.00 | 0.00 | 0.00 | 75 | 1030.6 |
| 20260508130054 | 57 | 135 | 3.0 | 7.0 | 0.00 | 0.00 | 0.00 | 76 | 1030.6 |
| 20260508125542 | 57 | 139 | 4.0 | 7.0 | 0.00 | 0.00 | 0.00 | 76 | 1030.6 |
| 20260508125042 | 57 | 139 | 3.0 | 6.0 | 0.00 | 0.00 | 0.00 | 77 | 1030.6 |
| 20260508124554 | 57 | 146 | 3.0 | 6.0 | 0.00 | 0.00 | 0.00 | 77 | 1030.7 |
| 20260508124041 | 57 | 172 | 2.0 | 4.0 | 0.00 | 0.00 | 0.00 | 77 | 1030.7 |
| 20260508123542 | 57 | 146 | 3.0 | 5.0 | 0.00 | 0.00 | 0.00 | 77 | 1030.6 |
| 20260508123052 | 57 | 139 | 3.0 | 5.0 | 0.00 | 0.00 | 0.00 | 78 | 1030.4 |
| 20260508122541 | 57 | 152 | 2.0 | 4.0 | 0.00 | 0.00 | 0.00 | 78 | 1030.5 |
| 20260508122041 | 57 | 181 | 3.0 | 4.0 | 0.00 | 0.00 | 0.00 | 78 | 1030.5 |
| 20260508121550 | 57 | 138 | 2.0 | 6.0 | 0.00 | 0.00 | 0.00 | 77 | 1030.6 |
| 20260508121041 | 57 | 152 | 4.0 | 6.0 | 0.00 | 0.00 | 0.00 | 77 | 1030.5 |
| 20260508120541 | 57 | 177 | 2.0 | 5.0 | 0.00 | 0.00 | 0.00 | 76 | 1030.5 |
| 20260508120108 | 57 | 155 | 3.0 | 5.0 | 0.00 | 0.00 | 0.00 | 75 | 1030.6 |
| 20260508115546 | 57 | 163 | 3.0 | 8.0 | 0.00 | 0.00 | 0.00 | 75 | 1030.4 |
| 20260508115045 | 57 | 146 | 4.0 | 8.0 | 0.00 | 0.00 | 0.00 | 75 | 1030.5 |
| 20260508114556 | 57 | 139 | 4.0 | 8.0 | 0.00 | 0.00 | 0.00 | 75 | 1030.6 |
| 20260508114041 | 57 | 143 | 4.0 | 8.0 | 0.00 | 0.00 | 0.00 | 75 | 1030.5 |
| 20260508113543 | 57 | 167 | 5.0 | 8.0 | 0.00 | 0.00 | 0.00 | 75 | 1030.6 |
| 20260508113103 | 57 | 156 | 4.0 | 9.0 | 0.00 | 0.00 | 0.00 | 76 | 1030.5 |
| 20260508112545 | 57 | 172 | 4.0 | 12.0 | 0.00 | 0.00 | 0.00 | 76 | 1030.5 |
| 20260508112041 | 57 | 140 | 6.0 | 12.0 | 0.00 | 0.00 | 0.00 | 74 | 1030.6 |
| 20260508111546 | 57 | 150 | 8.0 | 12.0 | 0.00 | 0.00 | 0.00 | 73 | 1030.6 |
| 20260508111036 | 56 | 149 | 6.0 | 10.0 | 0.00 | 0.00 | 0.00 | 73 | 1030.5 |
| 20260508110537 | 56 | 147 | 4.0 | 7.0 | 0.00 | 0.00 | 0.00 | 73 | 1030.5 |
| 20260508110049 | 56 | 153 | 4.0 | 7.0 | 0.00 | 0.00 | 0.00 | 73 | 1030.5 |
| 20260508105537 | 56 | 134 | 4.0 | 9.0 | 0.00 | 0.00 | 0.00 | 72 | 1030.3 |
| 20260508105037 | 56 | 150 | 5.0 | 9.0 | 0.00 | 0.00 | 0.00 | 72 | 1030.2 |
| 20260508104552 | 56 | 150 | 5.0 | 9.0 | 0.00 | 0.00 | 0.00 | 72 | 1030.4 |
| 20260508104041 | 56 | 159 | 3.0 | 9.0 | 0.00 | 0.00 | 0.00 | 72 | 1030.4 |
| 20260508103537 | 56 | 153 | 3.0 | 7.0 | 0.00 | 0.00 | 0.00 | 72 | 1030.3 |
| 20260508103050 | 56 | 146 | 4.0 | 7.0 | 0.00 | 0.00 | 0.00 | 72 | 1030.4 |
| 20260508102540 | 56 | 138 | 5.0 | 6.0 | 0.00 | 0.00 | 0.00 | 72 | 1030.3 |
| 20260508102040 | 56 | 144 | 4.0 | 9.0 | 0.00 | 0.00 | 0.00 | 72 | 1030.3 |
| 20260508101548 | 57 | 158 | 4.0 | 9.0 | 0.00 | 0.00 | 0.00 | 71 | 1030.3 |
| 20260508101037 | 57 | 173 | 6.0 | 9.0 | 0.00 | 0.00 | 0.00 | 71 | 1030.4 |
| 20260508100536 | 57 | 149 | 5.0 | 9.0 | 0.00 | 0.00 | 0.00 | 71 | 1030.4 |
| 20260508100114 | 57 | 155 | 6.0 | 9.0 | 0.00 | 0.00 | 0.00 | 71 | 1030.3 |
| 20260508095539 | 57 | 172 | 5.0 | 9.0 | 0.00 | 0.00 | 0.00 | 71 | 1030.4 |
| 20260508095037 | 57 | 146 | 4.0 | 8.0 | 0.00 | 0.00 | 0.00 | 71 | 1030.4 |
| 20260508094551 | 57 | 162 | 5.0 | 10.0 | 0.00 | 0.00 | 0.00 | 71 | 1030.2 |
| 20260508094040 | 57 | 160 | 5.0 | 10.0 | 0.00 | 0.00 | 0.00 | 71 | 1030.3 |
| 20260508093540 | 57 | 174 | 5.0 | 10.0 | 0.00 | 0.00 | 0.00 | 71 | 1030.3 |
| 20260508093048 | 57 | 147 | 5.0 | 9.0 | 0.00 | 0.00 | 0.00 | 71 | 1030.4 |
| 20260508092541 | 57 | 140 | 5.0 | 9.0 | 0.00 | 0.00 | 0.00 | 71 | 1030.4 |
| 20260508092041 | 57 | 156 | 5.0 | 10.0 | 0.00 | 0.00 | 0.00 | 71 | 1030.4 |
| 20260508091609 | 57 | 166 | 6.0 | 10.0 | 0.00 | 0.00 | 0.00 | 71 | 1030.3 |
| 20260508091041 | 57 | 153 | 5.0 | 9.0 | 0.00 | 0.00 | 0.00 | 71 | 1030.3 |
| 20260508090543 | 57 | 174 | 5.0 | 10.0 | 0.00 | 0.00 | 0.00 | 71 | 1030.3 |
| 20260508090053 | 57 | 169 | 6.0 | 10.0 | 0.00 | 0.00 | 0.00 | 71 | 1030.1 |
| 20260508085539 | 57 | 157 | 6.0 | 10.0 | 0.00 | 0.00 | 0.00 | 71 | 1030.1 |
| 20260508085039 | 57 | 155 | 6.0 | 10.0 | 0.00 | 0.00 | 0.00 | 70 | 1030.0 |
| 20260508084553 | 57 | 160 | 5.0 | 10.0 | 0.00 | 0.00 | 0.00 | 70 | 1030.0 |
| 20260508084044 | 57 | 136 | 6.0 | 10.0 | 0.00 | 0.00 | 0.00 | 70 | 1030.0 |
| 20260508083539 | 57 | 146 | 5.0 | 10.0 | 0.00 | 0.00 | 0.00 | 70 | 1030.0 |
| 20260508083046 | 57 | 169 | 7.0 | 12.0 | 0.00 | 0.00 | 0.00 | 70 | 1030.0 |
| 20260508082541 | 57 | 141 | 7.0 | 12.0 | 0.00 | 0.00 | 0.00 | 70 | 1030.0 |
| 20260508082040 | 57 | 162 | 6.0 | 12.0 | 0.00 | 0.00 | 0.00 | 69 | 1030.0 |
| 20260508081610 | 57 | 144 | 7.0 | 12.0 | 0.00 | 0.00 | 0.00 | 69 | 1029.9 |
| 20260508081041 | 57 | 186 | 6.0 | 10.0 | 0.00 | 0.00 | 0.00 | 69 | 1029.8 |
| 20260508080540 | 57 | 158 | 7.0 | 10.0 | 0.00 | 0.00 | 0.00 | 68 | 1029.8 |
| 20260508080050 | 58 | 150 | 6.0 | 10.0 | 0.00 | 0.00 | 0.00 | 68 | 1029.8 |
| 20260508075540 | 58 | 161 | 6.0 | 11.0 | 0.00 | 0.00 | 0.00 | 68 | 1029.8 |
| 20260508075039 | 58 | 172 | 6.0 | 13.0 | 0.00 | 0.00 | 0.00 | 68 | 1029.8 |
| 20260508074551 | 58 | 145 | 7.0 | 13.0 | 0.00 | 0.00 | 0.00 | 67 | 1029.7 |
| 20260508074041 | 58 | 152 | 7.0 | 14.0 | 0.00 | 0.00 | 0.00 | 66 | 1029.7 |
| 20260508073543 | 58 | 157 | 9.0 | 14.0 | 0.00 | 0.00 | 0.00 | 66 | 1029.6 |
| 20260508073102 | 59 | 148 | 7.0 | 11.0 | 0.00 | 0.00 | 0.00 | 65 | 1029.7 |
| 20260508072539 | 59 | 155 | 7.0 | 12.0 | 0.00 | 0.00 | 0.00 | 64 | 1029.7 |
| 20260508072040 | 59 | 161 | 8.0 | 13.0 | 0.00 | 0.00 | 0.00 | 63 | 1029.6 |
| 20260508071547 | 60 | 180 | 10.0 | 13.0 | 0.00 | 0.00 | 0.00 | 62 | 1029.6 |
| 20260508071042 | 60 | 154 | 7.0 | 16.0 | 0.00 | 0.00 | 0.00 | 63 | 1029.5 |
| 20260508070542 | 60 | 212 | 8.0 | 16.0 | 0.00 | 0.00 | 0.00 | 63 | 1029.6 |
| 20260508070052 | 61 | 161 | 8.0 | 12.0 | 0.00 | 0.00 | 0.00 | 62 | 1029.5 |
| 20260508065541 | 61 | 181 | 6.0 | 14.0 | 0.00 | 0.00 | 0.00 | 62 | 1029.4 |
| 20260508065045 | 61 | 160 | 8.0 | 14.0 | 0.00 | 0.00 | 0.00 | 62 | 1029.5 |
| 20260508064553 | 61 | 209 | 5.0 | 13.0 | 0.00 | 0.00 | 0.00 | 62 | 1029.4 |
| 20260508064040 | 61 | 190 | 7.0 | 13.0 | 0.00 | 0.00 | 0.00 | 61 | 1029.4 |
| 20260508063540 | 62 | 143 | 6.0 | 13.0 | 0.00 | 0.00 | 0.00 | 61 | 1029.4 |
| 20260508063055 | 62 | 207 | 7.0 | 13.0 | 0.00 | 0.00 | 0.00 | 60 | 1029.3 |
| 20260508062543 | 62 | 160 | 7.0 | 13.0 | 0.00 | 0.00 | 0.00 | 59 | 1029.3 |
| 20260508062040 | 62 | 142 | 7.0 | 13.0 | 0.00 | 0.00 | 0.00 | 58 | 1029.3 |
| 20260508061548 | 62 | 161 | 8.0 | 16.0 | 0.00 | 0.00 | 0.00 | 58 | 1029.3 |
| 20260508061040 | 63 | 179 | 7.0 | 16.0 | 0.00 | 0.00 | 0.00 | 57 | 1029.3 |
| 20260508060540 | 63 | 183 | 8.0 | 16.0 | 0.00 | 0.00 | 0.00 | 57 | 1029.3 |
| 20260508060105 | 63 | 206 | 7.0 | 13.0 | 0.00 | 0.00 | 0.00 | 56 | 1029.3 |
| 20260508055539 | 63 | 165 | 7.0 | 13.0 | 0.00 | 0.00 | 0.00 | 56 | 1029.2 |
| 20260508055039 | 63 | 148 | 7.0 | 12.0 | 0.00 | 0.00 | 0.00 | 56 | 1029.2 |
| 20260508054637 | 64 | 149 | 7.0 | 11.0 | 0.00 | 0.00 | 0.00 | 56 | 1029.2 |
| 20260508054039 | 64 | 165 | 6.0 | 14.0 | 0.00 | 0.00 | 0.00 | 56 | 1029.3 |
| 20260508053539 | 64 | 172 | 6.0 | 14.0 | 0.00 | 0.00 | 0.00 | 56 | 1029.3 |
| 20260508053053 | 64 | 168 | 6.0 | 14.0 | 0.00 | 0.00 | 0.00 | 56 | 1029.3 |
| 20260508052540 | 63 | 158 | 8.0 | 14.0 | 0.00 | 0.00 | 0.00 | 57 | 1029.3 |
| 20260508052038 | 63 | 216 | 7.0 | 14.0 | 0.00 | 0.00 | 0.00 | 57 | 1029.4 |
| 20260508051552 | 64 | 175 | 6.0 | 14.0 | 0.00 | 0.00 | 0.00 | 56 | 1029.5 |
| 20260508051040 | 64 | 160 | 4.0 | 13.0 | 0.00 | 0.00 | 0.00 | 56 | 1029.4 |
| 20260508050540 | 64 | 169 | 7.0 | 14.0 | 0.00 | 0.00 | 0.00 | 56 | 1029.5 |
| 20260508050053 | 64 | 153 | 7.0 | 14.0 | 0.00 | 0.00 | 0.00 | 56 | 1029.6 |
| 20260508045539 | 64 | 178 | 8.0 | 14.0 | 0.00 | 0.00 | 0.00 | 56 | 1029.6 |
| 20260508045039 | 64 | 188 | 9.0 | 13.0 | 0.00 | 0.00 | 0.00 | 56 | 1029.6 |
| 20260508044547 | 64 | 162 | 7.0 | 13.0 | 0.00 | 0.00 | 0.00 | 56 | 1029.7 |
| 20260508044041 | 64 | 190 | 7.0 | 12.0 | 0.00 | 0.00 | 0.00 | 56 | 1029.6 |
| 20260508043538 | 64 | 165 | 7.0 | 12.0 | 0.00 | 0.00 | 0.00 | 56 | 1029.7 |
| 20260508043058 | 64 | 160 | 7.0 | 15.0 | 0.00 | 0.00 | 0.00 | 57 | 1029.8 |
| 20260508042539 | 63 | 236 | 9.0 | 15.0 | 0.00 | 0.00 | 0.00 | 57 | 1029.8 |
| 20260508042040 | 63 | 150 | 9.0 | 14.0 | 0.00 | 0.00 | 0.00 | 56 | 1030.0 |
| 20260508041551 | 63 | 173 | 6.0 | 13.0 | 0.00 | 0.00 | 0.00 | 58 | 1030.0 |
| 20260508041040 | 63 | 141 | 9.0 | 13.0 | 0.00 | 0.00 | 0.00 | 57 | 1030.1 |
| 20260508040540 | 63 | 158 | 8.0 | 13.0 | 0.00 | 0.00 | 0.00 | 57 | 1030.0 |
| 20260508040055 | 63 | 167 | 8.0 | 13.0 | 0.00 | 0.00 | 0.00 | 57 | 1030.1 |
| 20260508035540 | 62 | 136 | 6.0 | 13.0 | 0.00 | 0.00 | 0.00 | 59 | 1030.1 |
| 20260508035040 | 62 | 150 | 8.0 | 12.0 | 0.00 | 0.00 | 0.00 | 58 | 1030.1 |
| 20260508034551 | 62 | 147 | 6.0 | 12.0 | 0.00 | 0.00 | 0.00 | 60 | 1030.2 |
| 20260508034039 | 62 | 158 | 6.0 | 12.0 | 0.00 | 0.00 | 0.00 | 59 | 1030.3 |
| 20260508033539 | 62 | 189 | 8.0 | 13.0 | 0.00 | 0.00 | 0.00 | 60 | 1030.4 |
| 20260508033049 | 62 | 160 | 7.0 | 14.0 | 0.00 | 0.00 | 0.00 | 60 | 1030.5 |
| 20260508032540 | 62 | 156 | 7.0 | 14.0 | 0.00 | 0.00 | 0.00 | 60 | 1030.6 |
| 20260508032040 | 62 | 145 | 7.0 | 13.0 | 0.00 | 0.00 | 0.00 | 60 | 1030.4 |
| 20260508031556 | 62 | 184 | 7.0 | 13.0 | 0.00 | 0.00 | 0.00 | 60 | 1030.6 |
| 20260508031040 | 62 | 179 | 8.0 | 13.0 | 0.00 | 0.00 | 0.00 | 61 | 1030.8 |
| 20260508030537 | 61 | 212 | 8.0 | 13.0 | 0.00 | 0.00 | 0.00 | 61 | 1030.9 |
| 20260508030057 | 62 | 174 | 7.0 | 13.0 | 0.00 | 0.00 | 0.00 | 61 | 1031.0 |
| 20260508025544 | 61 | 158 | 9.0 | 14.0 | 0.00 | 0.00 | 0.00 | 61 | 1031.1 |
| 20260508025040 | 62 | 148 | 8.0 | 14.0 | 0.00 | 0.00 | 0.00 | 61 | 1031.2 |
| 20260508024604 | 62 | 146 | 7.0 | 13.0 | 0.00 | 0.00 | 0.00 | 62 | 1031.2 |
| 20260508024040 | 61 | 160 | 6.0 | 13.0 | 0.00 | 0.00 | 0.00 | 62 | 1031.2 |
| 20260508023537 | 62 | 171 | 8.0 | 13.0 | 0.00 | 0.00 | 0.00 | 61 | 1031.3 |
| 20260508023050 | 61 | 175 | 7.0 | 14.0 | 0.00 | 0.00 | 0.00 | 62 | 1031.4 |
| 20260508022542 | 61 | 172 | 10.0 | 15.0 | 0.00 | 0.00 | 0.00 | 61 | 1031.4 |
| 20260508022040 | 61 | 146 | 9.0 | 15.0 | 0.00 | 0.00 | 0.00 | 63 | 1031.4 |
| 20260508021551 | 61 | 155 | 7.0 | 10.0 | 0.00 | 0.00 | 0.00 | 64 | 1031.4 |
| 20260508021039 | 61 | 158 | 5.0 | 13.0 | 0.00 | 0.00 | 0.00 | 63 | 1031.3 |
| 20260508020541 | 60 | 155 | 7.0 | 13.0 | 0.00 | 0.00 | 0.00 | 64 | 1031.5 |
| 20260508020101 | 60 | 143 | 8.0 | 13.0 | 0.00 | 0.00 | 0.00 | 64 | 1031.5 |
| 20260508015540 | 59 | 133 | 6.0 | 12.0 | 0.00 | 0.00 | 0.00 | 64 | 1031.4 |
| 20260508015040 | 59 | 139 | 7.0 | 12.0 | 0.00 | 0.00 | 0.00 | 64 | 1031.5 |
| 20260508014547 | 59 | 142 | 8.0 | 12.0 | 0.00 | 0.00 | 0.00 | 64 | 1031.7 |
| 20260508014040 | 59 | 149 | 8.0 | 12.0 | 0.00 | 0.00 | 0.00 | 65 | 1031.8 |
| 20260508013540 | 59 | 165 | 8.0 | 14.0 | 0.00 | 0.00 | 0.00 | 65 | 1032.0 |
| 20260508013046 | 58 | 149 | 9.0 | 14.0 | 0.00 | 0.00 | 0.00 | 65 | 1031.7 |
| 20260508012540 | 58 | 155 | 8.0 | 13.0 | 0.00 | 0.00 | 0.00 | 66 | 1031.9 |
| 20260508012040 | 58 | 179 | 6.0 | 12.0 | 0.00 | 0.00 | 0.00 | 67 | 1031.9 |
| 20260508011554 | 57 | 149 | 8.0 | 12.0 | 0.00 | 0.00 | 0.00 | 67 | 1031.9 |
| 20260508011039 | 57 | 179 | 6.0 | 12.0 | 0.00 | 0.00 | 0.00 | 69 | 1032.0 |
| 20260508010539 | 57 | 200 | 7.0 | 12.0 | 0.00 | 0.00 | 0.00 | 68 | 1032.1 |
| 20260508010054 | 57 | 167 | 6.0 | 12.0 | 0.00 | 0.00 | 0.00 | 70 | 1032.1 |
| 20260508005539 | 56 | 153 | 7.0 | 12.0 | 0.00 | 0.00 | 0.00 | 70 | 1032.0 |
| 20260508005041 | 56 | 167 | 6.0 | 11.0 | 0.00 | 0.00 | 0.00 | 71 | 1032.0 |
| 20260508004550 | 55 | 171 | 6.0 | 9.0 | 0.00 | 0.00 | 0.00 | 72 | 1032.1 |
| 20260508004037 | 55 | 148 | 6.0 | 9.0 | 0.00 | 0.00 | 0.00 | 71 | 1032.0 |
| 20260508003538 | 55 | 171 | 5.0 | 10.0 | 0.00 | 0.00 | 0.00 | 72 | 1032.1 |
| 20260508003053 | 55 | 160 | 6.0 | 10.0 | 0.00 | 0.00 | 0.00 | 73 | 1032.0 |